Regional Weather Roundup
Issued by NWS

Home | Current Version | Previous Version | Graphics & Text | Print | Product List | Glossary Off
Versions: 1 2 3 4 5 6 7 8 9 10 11 12 13 14 15 16 17 18 19 20 21 22 23 24 25 26 27 28 29 30 31 32 33 34 35 36 37 38 39 40 41 42 43 44 45 46 47 48 49 50

000
ASUS43 KLOT 211909
RWRIL

ILLINOIS REGIONAL WEATHER ROUNDUP
NATIONAL WEATHER SERVICE CHICAGO/ROMEOVILLE IL
200 PM CDT SAT OCT 21 2017

NOTE: "FAIR" INDICATES FEW OR NO CLOUDS BELOW 12,000 FEET WITH NO
SIGNIFICANT WEATHER AND/OR OBSTRUCTIONS TO VISIBILITY.

* THESE STATIONS ARE NOT UNDER NWS QUALITY CONTROL. THEY ALSO MAY NOT
  REPORT WEATHER SUCH AS PRECIPITATION OR FOG.

ILZ001-002-007-009-015-016-024-212000-
NORTHWEST ILLINOIS

CITY           SKY/WX    TMP DP  RH WIND       PRES   REMARKS
MOLINE         SUNNY     79  59  50 S20G30    29.87F HX  80
STERLING*      SUNNY     77  58  51 S14G21      N/A
SAVANNA*       SUNNY     80  59  48 S22       29.89F HX  80
$$

ILZ003-004-008-010-011-017-018-212000-
NORTH CENTRAL ILLINOIS

CITY           SKY/WX    TMP DP  RH WIND       PRES   REMARKS
ROCKFORD       MOSUNNY   75  53  46 S20       29.95F
FREEPORT*      SUNNY     76  55  47 S16G28    29.94F
ROCHELLE*      SUNNY     76  54  46 S18G26    29.95F
DE KALB*       SUNNY     74  56  53 S21G31    29.99F
PERU*          SUNNY     76  55  48 S20G26    29.97F
$$

ILZ005-006-012>014-019>023-212000-
NORTHEAST ILLINOIS

CITY           SKY/WX    TMP DP  RH WIND       PRES   REMARKS
CHICAGO-OHARE  MOSUNNY   76  56  49 S17       30.00F
CHICAGO-MIDWAY PTSUNNY   75  56  51 S16G30    30.02F
AURORA         SUNNY     77  56  48 S21G28    30.00F
LANSING*       CLOUDY    73  60  62 S16G26    30.05F
JOLIET*        MOSUNNY   76  58  54 S13G24    30.02F
WAUKEGAN       MOSUNNY   74  57  55 S16G25    29.98F
DUPAGE AIRPORT SUNNY     76  57  51 S20G29    29.99F
KANKAKEE*      PTSUNNY   74  57  54 S16       30.06F
WHEELING       MOSUNNY   76  57  51 S21       30.01F
MORRIS*        SUNNY     77  56  49 S16G22    30.00F
ROMEOVILLE*    SUNNY    N/A N/A N/A S17       30.02S
NORTHERLY ISL    N/A     73  53  49 S24         N/A
$$

LMZ740>746-212000-
SOUTHERN LAKE MICHIGAN

STATION/POSITION SKY/WX   TEMP    WIND        PRES    VSBY  WAVE
                          AIR SEA DIR/SP/G                  HT/PER
                          (F)     (DEG/KT/KT) (MB)    (MI)  (FT/S)
SOUTHERN BUOY              64 61  150/ 17/ 21 1016.7F         4/ 5
WILMETTE HARBOR            65 60  160/ 10/ 17   N/A           2/ 3
HARRISON CRIB              71     190/ 25/ 26   N/A
BURNHAM HARBOR             72     190/ 17/ 22   N/A
CALUMET HARBOR             72     170/ 16/ 24 1016.4F
BURNS HARBOR               72     190/ 17/ 23 1018.3F
MICHIGAN CITY              72     180/ 16/ 19   N/A
MICHIGAN CITY 6N           67 58  190/ 14/ 19   N/A           1/ 2
ST. JOSEPH                 66 59  190/ 10/ 12 1018.0          1/ 3
$$

ILZ025>027-034>036-040-047-049-050-058-095>099-212000-
WEST-CENTRAL ILLINOIS

CITY           SKY/WX    TMP DP  RH WIND       PRES   REMARKS
QUINCY         SUNNY     79  60  52 S22G36    29.90F HX  80
GALESBURG*     SUNNY     83  68  59 S18G25    29.92F HX  87
MACOMB*        MOSUNNY   79  60  51 S20       29.94F HX  80
JACKSONVILLE*  CLOUDY    74  61  63 S16G25    29.97F
PITTSFIELD*    SUNNY     77  63  61 S14G21    29.96F
$$

ILZ028>032-037-038-041>044-048-051>054-059>061-212000-
CENTRAL ILLINOIS

CITY           SKY/WX    TMP DP  RH WIND       PRES   REMARKS
PONTIAC        SUNNY     76  59  55 S20G28    30.02F
BLOOMINGTON    MOSUNNY   74  60  61 S23G31    30.03F
DECATUR        CLOUDY    73  59  61 S14       30.05F
PEORIA         SUNNY     76  59  55 S20G28    29.97F
LACON*         SUNNY     78  59  53 S16G22    29.96F
LINCOLN*       MOSUNNY   76  62  62 S14G26    30.01F
SPRINGFIELD    PTSUNNY   75  62  64 S12G24    30.01F
TAYLORVILLE    CLOUDY    76  59  55 S20G25    30.03F
$$

ILZ033-039-045-046-055>057-062-063-212000-
EAST-CENTRAL ILLINOIS

CITY           SKY/WX    TMP DP  RH WIND       PRES   REMARKS
CHAMPAIGN      CLOUDY    77  56  48 S20       30.07F
DANVILLE*      SUNNY     78  57  47 SW16G22   30.07F
RANTOUL*       PTSUNNY   76  61  60 SW14      30.07F
MATTOON        MOSUNNY   73  59  61 S10       30.07F
PARIS*         SUNNY     76  58  53 S14       30.11F
$$

ILZ079-100>102-212000-
SOUTHWEST ILLINOIS

CITY           SKY/WX    TMP DP  RH WIND       PRES   REMARKS
ALTON          PTSUNNY   73  63  68 S14       30.02F
BELLEVILLE     PTSUNNY   75  59  56 S17       30.05F
CAHOKIA*       PTSUNNY   80  59  48 SE15G22   30.01F HX  81
SPARTA*        CLOUDY    77  60  54 S12G17    30.06F
$$

ILZ064>066-069>071-074>076-080>082-084>086-088>090-092>094-212000-
SOUTH-CENTRAL ILLINOIS

CITY           SKY/WX    TMP DP  RH WIND       PRES   REMARKS
CARBONDALE     CLOUDY    76  57  51 S13G20    30.08F
CAIRO*         MOSUNNY   79  55  43 S13G20    30.09F
EFFINGHAM*     MOSUNNY   79  59  50 SE13G18   30.09F HX  80
MARION         PTSUNNY   77  57  50 S12       30.10R
MT. VERNON     LGT RAIN  74  59  59 S12       30.09F
CENTRALIA*     PTSUNNY   76  58  54 S16G23    30.07F
SALEM*         MOSUNNY   76  56  48 S14G29    30.08F
METROPOLIS*    PTSUNNY   79  56  44 S9        30.11F HX  80
$$

ILZ067-068-072-073-078-083-087-091-212000-
SOUTHEAST ILLINOIS

CITY           SKY/WX    TMP DP  RH WIND       PRES   REMARKS
LAWRENCEVILLE  CLOUDY    78  57  48 S13G20    30.12F
FLORA*         RAIN      75  58  55 S9        30.10S
FAIRFIELD*     CLOUDY    77  57  50 S9        30.09F
HARRISBURG*    CLOUDY    76  56  51 SE9       30.11F
ROBINSON*      MOSUNNY   76  56  49 S13       30.13F
CARMI*         MOSUNNY   77  56  48 S13       30.12F
$$

ABBREVIATIONS USED IN REMARKS
   TC - TEMPERATURE IN CELSIUS
  WCI - WIND CHILL INDEX
   HX - HEAT INDEX
  VSB - VISIBILITY
$$





USA.gov is the U.S. government's official web portal to all federal, state and local government web resources and services.